Mason City, IA

5:55 AM CDT on June 28, 2017 (GMT -0500)
Mason City Municipal

Weather History for KMCW - January, 2014

Change the Weather History Date:

Wednesday, January 1, 2014

  Actual Average Record
Temperature  
Mean Temperature 0 °F 16 °F  
Max Temperature 3 °F 25 °F 54 °F (1897)
Min Temperature -4 °F 8 °F -24 °F (1974)
Degree Days  
Heating Degree Days 65 49  
Month to date heating degree days 65 49  
Since 1 July heating degree days 3309 3138  
Cooling Degree Days 0 0  
Month to date cooling degree days 0 0  
Year to date cooling degree days 0 0  
Moisture  
Dew Point -7 °F    
Average Humidity 74    
Maximum Humidity 79    
Minimum Humidity 68    
Precipitation  
Precipitation T in 0.03 in 0.62 in (2005)
Month to date precipitation T 0.03  
Year to date precipitation T 0.03  
Snow  
Snow T in 0.30 in 7.50 in (1942)
Month to date snowfall T 0.3  
Since 1 July snowfall 16.4 14.3  
Snow Depth 10.00 in    
Sea Level Pressure  
Sea Level Pressure 30.40 in    
Wind  
Wind Speed 13 mph (NNE)    
Max Wind Speed 17 mph    
Max Gust Speed 20 mph    
Visibility 10 miles    
Events      
T = Trace of Precipitation, MM = Missing Value Source: NWS Daily Summary

Daily Weather History Graph

Daily Weather History Graph

Search for Another Location

Airport or City:

Trip Planner

Search our weather history database for the weather conditions in past years. The results will help you decide how hot, cold, wet, or windy it might be!

Date:

Astronomy

Jan. 01, 2014 Rise Set
Actual Time 7:45 AM CST 4:48 PM CST
Civil Twilight 7:12 AM CST 5:21 PM CST
Nautical Twilight 6:37 AM CST 5:57 PM CST
Astronomical Twilight 6:02 AM CST 6:31 PM CST
Moon 7:34 AM CST (1/1) 5:36 PM CST (1/1)
Length of Visible Light 10h 08m
Length of Day
9h 03m
New Moon, 0% of the Moon is Illuminated
Jan 1
New Moon
Jan 7
First Quarter
Jan 15
Full
Jan 23
Last Quarter
Jan 30
New

Hourly Weather History & Observations

Time (CST) Temp. Windchill Dew Point Humidity Pressure Visibility Wind Dir Wind Speed Gust Speed Precip Events Conditions
12:53 AM -2.0 °F -19.6 °F -7.1 °F 79% 30.35 in 10.0 mi NE 11.5 mph - N/A   Mostly Cloudy
1:53 AM -2.9 °F -20.8 °F -8.0 °F 79% 30.35 in 10.0 mi NE 11.5 mph - N/A   Overcast
2:53 AM -2.9 °F -21.6 °F -9.0 °F 75% 30.37 in 10.0 mi NNE 12.7 mph - N/A   Overcast
3:53 AM -2.9 °F -21.6 °F -9.0 °F 75% 30.36 in 10.0 mi NE 12.7 mph - N/A   Overcast
4:53 AM -2.9 °F -21.6 °F -9.0 °F 75% 30.37 in 10.0 mi NE 12.7 mph - N/A   Overcast
5:53 AM -2.0 °F -20.5 °F -9.0 °F 72% 30.37 in 10.0 mi NE 12.7 mph - N/A   Overcast
6:53 AM -2.0 °F -21.2 °F -8.0 °F 76% 30.38 in 10.0 mi NE 13.8 mph - N/A   Mostly Cloudy
7:53 AM -2.9 °F -21.6 °F -9.0 °F 75% 30.39 in 10.0 mi NE 12.7 mph - N/A   Clear
8:53 AM -4.0 °F -23.7 °F -9.9 °F 76% 30.41 in 10.0 mi NNE 13.8 mph - N/A   Clear
9:53 AM -2.9 °F -22.4 °F -9.9 °F 72% 30.44 in 10.0 mi NE 13.8 mph - N/A   Overcast
10:53 AM -0.0 °F -18.0 °F -8.0 °F 69% 30.44 in 10.0 mi NNE 12.7 mph - N/A   Overcast
11:53 AM 1.0 °F -16.6 °F -7.1 °F 69% 30.42 in 10.0 mi NE 12.7 mph - N/A   Mostly Cloudy
12:53 PM 1.0 °F -17.3 °F -7.1 °F 69% 30.40 in 10.0 mi NNE 13.8 mph - N/A   Clear
1:53 PM 1.9 °F -14.7 °F -6.0 °F 69% 30.39 in 10.0 mi NNE 11.5 mph - N/A   Clear
2:53 PM 1.9 °F -15.5 °F -7.1 °F 66% 30.39 in 10.0 mi NNE 12.7 mph - N/A   Scattered Clouds
3:53 PM 1.0 °F -14.9 °F -6.0 °F 72% 30.40 in 10.0 mi NNE 10.4 mph - N/A   Overcast
4:53 PM 1.9 °F -15.5 °F -5.1 °F 72% 30.42 in 10.0 mi NNE 12.7 mph - N/A   Overcast
5:53 PM 1.9 °F -15.5 °F -5.1 °F 72% 30.43 in 10.0 mi NNE 12.7 mph - N/A   Overcast
6:53 PM 1.9 °F -16.9 °F -5.1 °F 72% 30.44 in 10.0 mi North 15.0 mph - N/A   Overcast
7:53 PM 3.0 °F -13.3 °F -5.1 °F 69% 30.44 in 10.0 mi North 11.5 mph - N/A   Overcast
8:53 PM 1.9 °F -14.7 °F -4.0 °F 76% 30.44 in 10.0 mi North 11.5 mph - N/A   Overcast
9:53 PM 1.9 °F -14.7 °F -4.0 °F 76% 30.45 in 10.0 mi North 11.5 mph - N/A   Overcast
10:53 PM 1.9 °F -14.7 °F -4.0 °F 76% 30.44 in 10.0 mi North 11.5 mph - N/A   Overcast
11:53 PM 1.9 °F -14.7 °F -4.0 °F 76% 30.42 in 10.0 mi North 11.5 mph - N/A   Overcast